San Antonio Stinson, TX

9:09 PM CST on November 23, 2017 (GMT -0600)
Stinson Municipal

Weather History for KSSF - February, 2012

Change the Weather History Date:

Sunday, February 12, 2012

  Actual Average Record
Temperature  
Mean Temperature 38 °F -  
Max Temperature 44 °F 64 °F 86 °F (2017)
Min Temperature 33 °F 44 °F 26 °F (2006)
Degree Days  
Heating Degree Days 26    
Moisture  
Dew Point 28 °F    
Average Humidity 66    
Maximum Humidity 100    
Minimum Humidity 43    
Precipitation  
Precipitation 0.00 in - - ()
Sea Level Pressure  
Sea Level Pressure 30.36 in    
Wind  
Wind Speed 11 mph (ENE)    
Max Wind Speed 17 mph    
Max Gust Speed 24 mph    
Visibility 8 miles    
Events Rain    
Averages and records for this station are not official NWS values.
T = Trace of Precipitation, MM = Missing Value Source: NWS Daily Summary

Daily Weather History Graph

Daily Weather History Graph

Search for Another Location

Airport or City:

Trip Planner

Search our weather history database for the weather conditions in past years. The results will help you decide how hot, cold, wet, or windy it might be!

Date:

Astronomy

Feb. 12, 2012 Rise Set
Actual Time 7:15 AM CST 6:20 PM CST
Civil Twilight 6:51 AM CST 6:45 PM CST
Nautical Twilight 6:23 AM CST 7:13 PM CST
Astronomical Twilight 5:55 AM CST 7:41 PM CST
Moon 11:45 PM CST (2/12) 10:06 AM CST (2/12)
Length of Visible Light 11h 53m
Length of Day
11h 04m
Waning Gibbous, 72% of the Moon is Illuminated
Feb 12
Waning Gibbous
Feb 14
Last Quarter
Feb 21
New
Feb 29
First Quarter
Mar 8
Full

Hourly Weather History & Observations

Time (CST) Temp. Windchill Dew Point Humidity Pressure Visibility Wind Dir Wind Speed Gust Speed Precip Events Conditions
12:53 AM 37.9 °F 31.5 °F 17.1 °F 43% 30.52 in 10.0 mi NE 9.2 mph 18.4 mph N/A   Clear
1:53 AM 37.0 °F 30.4 °F 18.0 °F 46% 30.52 in 10.0 mi NE 9.2 mph - N/A   Clear
2:53 AM 36.0 °F 27.5 °F 18.0 °F 48% 30.50 in 10.0 mi NE 12.7 mph - N/A   Clear
3:53 AM 34.0 °F 25.0 °F 19.0 °F 54% 30.49 in 10.0 mi NE 12.7 mph - N/A   Mostly Cloudy
4:53 AM 33.1 °F 24.4 °F 19.9 °F 59% 30.51 in 10.0 mi NE 11.5 mph 17.3 mph N/A   Partly Cloudy
5:53 AM 33.1 °F 24.4 °F 19.9 °F 59% 30.52 in 10.0 mi NE 11.5 mph - N/A   Overcast
6:53 AM 33.1 °F 23.4 °F 19.0 °F 56% 30.52 in 10.0 mi ENE 13.8 mph 19.6 mph N/A   Overcast
7:53 AM 33.1 °F 23.0 °F 19.0 °F 56% 30.52 in 10.0 mi ENE 15.0 mph 21.9 mph N/A   Overcast
8:53 AM 34.0 °F 23.4 °F 19.0 °F 54% 30.53 in 10.0 mi NE 17.3 mph 24.2 mph N/A   Mostly Cloudy
9:53 AM 34.0 °F 24.2 °F 19.9 °F 56% 30.53 in 10.0 mi ENE 15.0 mph 20.7 mph N/A   Overcast
10:53 AM 35.1 °F 26.9 °F 21.0 °F 57% 30.51 in 10.0 mi NE 11.5 mph 20.7 mph N/A   Overcast
11:53 AM 37.0 °F 29.3 °F 23.0 °F 57% 30.47 in 10.0 mi ENE 11.5 mph - N/A   Overcast
12:53 PM 39.9 °F 32.1 °F 23.0 °F 51% 30.43 in 10.0 mi ENE 13.8 mph - N/A   Overcast
1:53 PM 41.0 °F 34.7 °F 23.0 °F 49% 30.38 in 10.0 mi ENE 10.4 mph - N/A   Overcast
2:53 PM 43.0 °F 37.2 °F 25.0 °F 49% 30.34 in 10.0 mi East 10.4 mph - N/A   Overcast
3:53 PM 44.1 °F 39.0 °F 26.1 °F 49% 30.33 in 10.0 mi East 9.2 mph 18.4 mph N/A   Overcast
4:53 PM 43.0 °F 38.2 °F 27.0 °F 53% 30.31 in 10.0 mi East 8.1 mph - N/A   Overcast
5:53 PM 43.0 °F 38.2 °F 28.9 °F 58% 30.30 in 10.0 mi East 8.1 mph - N/A   Overcast
6:17 PM 42.8 °F 38.6 °F 30.2 °F 61% 30.27 in 10.0 mi ENE 6.9 mph - N/A   Overcast
6:53 PM 42.1 °F 37.1 °F 32.0 °F 67% 30.28 in 10.0 mi ENE 8.1 mph - 0.00 in Rain Light Rain
7:00 PM 42.8 °F 37.5 °F 32.0 °F 66% 30.25 in 10.0 mi East 9.2 mph - 0.00 in Rain Light Rain
7:11 PM 42.8 °F 37.5 °F 32.0 °F 66% 30.25 in 10.0 mi East 9.2 mph - 0.00 in   Overcast
7:53 PM 42.1 °F 37.1 °F 32.0 °F 67% 30.27 in 10.0 mi East 8.1 mph - 0.00 in   Overcast
8:53 PM 42.1 °F 36.6 °F 34.0 °F 73% 30.26 in 10.0 mi ENE 9.2 mph - N/A   Overcast
9:53 PM 41.0 °F 36.4 °F 35.1 °F 79% 30.24 in 9.0 mi East 6.9 mph - N/A   Overcast
10:40 PM 41.0 °F 35.2 °F 39.2 °F 93% 30.20 in 2.0 mi ENE 9.2 mph - 0.00 in Rain Light Rain
10:53 PM 39.9 °F 35.8 °F 39.0 °F 97% 30.22 in 2.0 mi ENE 5.8 mph - 0.00 in Rain Light Rain
10:57 PM 39.2 °F 34.2 °F 39.2 °F 100% 30.19 in 2.0 mi East 6.9 mph - 0.00 in Rain Light Rain
11:00 PM 39.2 °F 34.2 °F 39.2 °F 100% 30.19 in 1.8 mi ENE 6.9 mph - 0.00 in Rain Light Rain
11:18 PM 39.2 °F 33.6 °F 39.2 °F 100% 30.17 in 2.0 mi East 8.1 mph - 0.00 in Rain Light Rain
11:53 PM 39.9 °F 35.8 °F 39.9 °F 100% 30.17 in 2.0 mi East 5.8 mph - 0.00 in   Overcast